[[[{"header":{"parameterUnit":"kt","parameterCategory":2,"dx":1,"dy":1,"la1":30.253999710083008,"la2":30.299108505249023,"lo1":-89.0895004272461,"lo2":-89.04439544677734,"nx":28,"ny":28,"refTime":"2022-10-16T21:00:00:Z","depth":0,"parameterNumber":1,"parameterNumberName":"U-component_of_WINDS"},"data":[1.7672,1.7672,1.7676,1.7678,1.7682,1.7684,1.7686,1.7689,1.7692,1.7695,1.7698,1.7702,1.7707,1.7711,1.7714,1.7716,1.7717,1.7715,1.7717,1.7721,1.7722,1.7723,1.7723,1.7715,1.7715,1.7712,1.7712,1.7712,1.7679,1.7683,1.7684,1.7688,1.769,1.7695,1.7698,1.7699,1.7701,1.7705,1.7707,1.771,1.7713,1.7718,1.7721,1.7722,1.7724,1.7723,1.7722,1.7723,1.7728,1.7728,1.7721,1.7721,1.7721,1.7721,1.7721,1.7721,1.7692,1.7692,1.7696,1.7697,1.77,1.7703,1.7703,1.7707,1.7709,1.7712,1.7715,1.7717,1.7721,1.7725,1.7728,1.773,1.7731,1.7731,1.773,1.773,1.773,1.7736,1.773,1.773,1.773,1.773,1.773,0,1.7702,1.7705,1.7706,1.7709,1.771,1.7712,1.7714,1.7714,1.772,1.7721,1.7723,1.7724,1.7727,1.7729,1.7732,1.7734,1.7738,1.7738,1.7738,1.7736,1.7735,1.7736,1.7744,1.7738,1.7738,1.7738,1.7738,1.7738,1.7716,1.7714,1.7719,1.772,1.7721,1.7721,1.7722,1.7727,1.7728,1.7732,1.7731,1.7733,1.7734,1.7736,1.7739,1.7741,1.7743,1.774,1.7743,1.7742,1.7743,1.7743,1.7743,1.7739,1.7739,1.7739,1.7739,0,1.7723,1.7727,1.7725,1.773,1.7731,1.7729,1.7733,1.7733,1.7736,1.7735,1.7735,1.774,1.7741,1.7745,1.7746,1.7748,1.7747,1.7748,1.7746,1.7747,1.7745,1.7745,1.7737,1.7737,1.7745,1.7745,1.7745,0,1.7736,1.7733,1.7739,1.7738,1.7736,1.774,1.7738,1.774,1.7742,1.7742,1.7746,1.7746,1.775,1.775,1.7753,1.7753,1.7753,1.7754,1.7754,1.7753,1.7753,1.7752,1.7753,1.7755,1.7755,1.7755,1.7755,0,1.7746,1.7746,1.7744,1.7744,1.7747,1.7746,1.7748,1.775,1.775,1.7751,1.7751,1.7752,1.7752,1.7753,1.7756,1.7758,1.7755,1.7758,1.7756,1.7756,1.7754,1.7754,1.7748,1.7755,1.7755,1.7755,1.7755,0,1.7756,1.7757,1.7752,1.7756,1.7755,1.7753,1.7754,1.7753,1.7755,1.7756,1.7757,1.7759,1.7758,1.7761,1.776,1.7762,1.7762,1.7763,1.7763,1.7762,1.7765,1.7761,1.7755,1.7754,1.7764,1.7764,1.7764,0,1.7768,1.7764,1.7767,1.7762,1.7761,1.7765,1.7764,1.7764,1.7766,1.7765,1.7767,1.7765,1.7768,1.7767,1.7767,1.7768,1.7766,1.7768,1.7767,1.7767,1.7767,1.7762,1.7759,1.7756,1.7764,1.7764,1.7764,0,1.7776,1.7779,1.7778,1.7778,1.7779,1.7777,1.7775,1.7774,1.7774,1.7773,1.7771,1.7769,1.7771,1.777,1.7771,1.777,1.7768,1.7772,1.7772,1.7772,1.7765,1.7763,1.7762,1.7769,1.7769,1.7769,1.7765,0,1.7792,1.7789,1.7786,1.7785,1.7784,1.7781,1.7783,1.7782,1.7783,1.7784,1.7781,1.778,1.7778,1.7778,1.7778,1.7775,1.7776,1.7777,1.7779,1.7775,1.7774,1.7774,1.7781,1.7781,1.7781,1.7781,0,0,1.7802,1.7797,1.7799,1.7796,1.7795,1.7798,1.7795,1.7794,1.7792,1.7791,1.7793,1.7789,1.7787,1.7783,1.7783,1.7781,1.7781,1.7781,1.7777,1.7777,1.7776,1.7775,1.7774,1.7781,1.7781,1.7781,1.7781,0,1.7807,1.7806,1.7802,1.7801,1.78,1.7801,1.78,1.7799,1.7799,1.7795,1.7797,1.7795,1.779,1.7789,1.7788,1.7782,1.7783,1.7782,1.7779,1.7777,1.7777,1.7777,1.7775,1.7775,1.7781,1.7781,1.7781,0,1.7816,1.7815,1.7813,1.781,1.7808,1.7806,1.7809,1.7805,1.7804,1.7805,1.7801,1.78,1.7799,1.7794,1.7792,1.7793,1.7785,1.7787,1.7787,1.7786,1.7785,1.7784,1.7784,1.7791,1.7791,1.7791,0,0,1.782,1.7817,1.7816,1.7811,1.781,1.781,1.7808,1.7809,1.7807,1.7806,1.7804,1.7803,1.78,1.7798,1.7795,1.779,1.779,1.7788,1.7788,1.7787,1.7786,1.7785,1.7785,1.7791,1.7791,1.7791,0,0,1.7822,1.7821,1.7822,1.7815,1.7814,1.7812,1.7809,1.781,1.7808,1.7808,1.7808,1.7807,1.7803,1.7801,1.7803,1.7796,1.7798,1.7797,1.7797,1.7796,1.7796,1.7796,1.7805,0,0,0,0,0,1.7827,1.7821,1.7822,1.7821,1.7816,1.7812,1.7811,1.7811,1.7813,1.7811,1.781,1.781,1.7803,1.7804,1.7803,1.7801,1.7793,1.7792,1.7792,1.779,1.7789,1.7789,0,0,0,0,0,0,1.7827,1.7825,1.7822,1.7821,1.7819,1.7812,1.7815,1.7815,1.7813,1.7814,1.7811,1.781,1.781,1.7805,1.7804,1.7801,1.7805,1.7792,1.7792,1.7792,1.7789,1.7789,1.7789,0,0,0,0,0,1.7826,1.7825,1.7817,1.7821,1.782,1.7818,1.7816,1.7815,1.7814,1.7812,1.7812,1.7814,1.781,1.7809,1.7804,1.7802,1.7806,1.7805,1.7792,1.7792,1.7792,1.7789,0,0,0,0,0,0,1.7826,1.7825,1.7816,1.7816,1.7822,1.7819,1.7818,1.7816,1.7812,1.7812,1.7815,1.7816,1.781,1.7809,1.7808,1.7802,1.7806,1.7806,1.7806,1.7792,1.7792,1.7792,0,0,0,0,0,0,1.7826,1.7825,1.7816,1.7818,1.7818,1.7819,1.7818,1.7814,1.7812,1.7816,1.7816,1.7815,1.781,1.7809,1.7808,1.7801,1.7807,1.7806,1.7806,1.7806,1.7792,1.7792,0,0,0,0,0,0,1.7825,1.7824,1.7818,1.7818,1.7818,1.7815,1.7815,1.7809,1.7815,1.7816,1.7815,1.7815,1.781,1.781,1.7809,1.7802,1.7801,1.7807,1.7806,1.7806,1.7806,0,0,0,0,0,0,0,1.7825,1.783,1.7818,1.7818,1.7818,1.7813,1.7813,1.7813,1.7815,1.7815,1.7815,1.7815,1.7809,1.7808,1.7808,1.7802,0,0,1.7807,1.7807,0,0,0,0,0,0,0,0,1.783,1.783,1.7818,1.7818,1.7818,1.7813,1.7813,1.7813,1.7815,1.7815,1.7815,1.7815,1.7809,1.7808,1.7808,0,0,0,0,0,0,0,0,0,0,0,0,0,0,0,1.7818,1.7818,0,1.7813,1.7813,1.7813,1.7815,1.7815,1.7815,1.7815,1.7809,1.7808,1.7808,0,0,0,0,0,0,0,0,0,0,0,0,0,0,0,0,0,0,0,0,0,0,0,0,0,0,0,0,0,0,0,0,0,0,0,0,0,0,0,0,0,0,0,0,0,0,0,0,0,0,0,0,0,0,0,0,0,0,0,0,0,0,0,0,0,0,0,0,0]}],[{"header":{"parameterUnit":"kt","parameterCategory":2,"dx":1,"dy":1,"la1":30.253999710083008,"la2":30.299108505249023,"lo1":-89.0895004272461,"lo2":-89.04439544677734,"nx":28,"ny":28,"refTime":"2022-10-16T21:00:00:Z","depth":0,"parameterNumber":2,"parameterNumberName":"V-component_of_WINDS"},"data":[-13.6863,-13.7008,-13.7029,-13.7202,-13.7249,-13.737,-13.7419,-13.7484,-13.7539,-13.7682,-13.7767,-13.7798,-13.7856,-13.7959,-13.8049,-13.8059,-13.8096,-13.8136,-13.8141,-13.7952,-13.7927,-13.7902,-13.7871,-13.8144,-13.8144,-13.8335,-13.8337,-13.8338,-13.6728,-13.6778,-13.6875,-13.6983,-13.7066,-13.7041,-13.7122,-13.7192,-13.7299,-13.7367,-13.7451,-13.7576,-13.7676,-13.7721,-13.7818,-13.7883,-13.7875,-13.7908,-13.7904,-13.7913,-13.7711,-13.7678,-13.7914,-13.7914,-13.7914,-13.7914,-13.7914,-13.7914,-13.6489,-13.6575,-13.6651,-13.6757,-13.6815,-13.6885,-13.6969,-13.7006,-13.7098,-13.7205,-13.7205,-13.7324,-13.7392,-13.7515,-13.7558,-13.765,-13.7614,-13.7655,-13.7665,-13.7675,-13.7687,-13.7412,-13.7666,-13.7665,-13.7665,-13.7664,-13.7664,0,-13.632,-13.6331,-13.6424,-13.6524,-13.6601,-13.6679,-13.6752,-13.6803,-13.6825,-13.6899,-13.7008,-13.7072,-13.7198,-13.7299,-13.7392,-13.7428,-13.7404,-13.7402,-13.743,-13.7434,-13.7427,-13.7434,-13.7106,-13.7394,-13.7392,-13.739,-13.7389,-13.7388,-13.6081,-13.6177,-13.6264,-13.6327,-13.6371,-13.6471,-13.6534,-13.6546,-13.6611,-13.67,-13.6772,-13.6874,-13.6956,-13.7122,-13.7156,-13.7248,-13.7236,-13.7346,-13.725,-13.725,-13.724,-13.7235,-13.7245,-13.7364,-13.7367,-13.7369,-13.7371,0,-13.5945,-13.5974,-13.6128,-13.6202,-13.6223,-13.6322,-13.6384,-13.6467,-13.649,-13.6607,-13.6635,-13.6671,-13.6774,-13.6791,-13.6909,-13.6915,-13.7076,-13.7061,-13.7054,-13.7053,-13.7153,-13.7144,-13.7473,-13.7517,-13.7233,-13.7236,-13.7238,0,-13.5752,-13.5876,-13.5912,-13.5999,-13.6138,-13.6146,-13.6282,-13.6315,-13.6374,-13.6466,-13.6443,-13.6529,-13.6536,-13.6624,-13.6631,-13.6765,-13.6786,-13.6799,-13.6799,-13.6802,-13.68,-13.6834,-13.6821,-13.6794,-13.6793,-13.6791,-13.679,0,-13.5537,-13.5699,-13.5842,-13.5882,-13.5971,-13.6037,-13.6076,-13.614,-13.6199,-13.6278,-13.6316,-13.6406,-13.6455,-13.6523,-13.6533,-13.6468,-13.6696,-13.6607,-13.6708,-13.6708,-13.6757,-13.6754,-13.7042,-13.6788,-13.6787,-13.6787,-13.6786,0,-13.5385,-13.5469,-13.5669,-13.5743,-13.5785,-13.5876,-13.5968,-13.605,-13.6118,-13.613,-13.6191,-13.6176,-13.6293,-13.6205,-13.6366,-13.6279,-13.6328,-13.6349,-13.6357,-13.6368,-13.6269,-13.643,-13.6702,-13.6732,-13.638,-13.6376,-13.6373,0,-13.5133,-13.5341,-13.535,-13.5538,-13.5637,-13.5607,-13.5708,-13.5769,-13.5793,-13.5878,-13.5902,-13.5997,-13.5934,-13.5966,-13.6044,-13.6071,-13.6185,-13.6056,-13.6176,-13.618,-13.6161,-13.6412,-13.6448,-13.6641,-13.633,-13.6334,-13.6338,0,-13.4939,-13.5047,-13.5079,-13.5127,-13.521,-13.529,-13.5406,-13.5503,-13.5559,-13.5628,-13.5725,-13.5856,-13.5815,-13.5866,-13.5861,-13.5941,-13.6108,-13.5885,-13.5886,-13.5926,-13.6308,-13.6344,-13.6376,-13.6087,-13.6092,-13.6097,-13.6303,0,-13.4707,-13.4813,-13.4903,-13.5004,-13.5069,-13.5186,-13.5206,-13.5271,-13.5262,-13.5284,-13.5424,-13.5473,-13.5567,-13.5606,-13.5596,-13.5773,-13.5746,-13.5699,-13.5613,-13.5777,-13.5845,-13.5873,-13.551,-13.5508,-13.5506,-13.5504,0,0,-13.4459,-13.4611,-13.4614,-13.4727,-13.4782,-13.4747,-13.487,-13.4918,-13.5015,-13.5053,-13.5006,-13.5198,-13.5239,-13.5406,-13.5458,-13.5495,-13.5528,-13.5469,-13.5699,-13.572,-13.574,-13.5813,-13.5842,-13.55,-13.55,-13.5499,-13.5498,0,-13.4378,-13.4427,-13.455,-13.4601,-13.4677,-13.4694,-13.4723,-13.479,-13.4809,-13.4945,-13.491,-13.4995,-13.5145,-13.5195,-13.524,-13.545,-13.5417,-13.5477,-13.5586,-13.5677,-13.5702,-13.5723,-13.58,-13.5827,-13.5493,-13.5494,-13.5494,0,-13.4193,-13.4244,-13.4305,-13.4428,-13.4475,-13.4574,-13.4492,-13.4599,-13.4672,-13.4621,-13.4756,-13.4785,-13.485,-13.5005,-13.5074,-13.5032,-13.5316,-13.5227,-13.524,-13.5248,-13.5336,-13.5366,-13.5392,-13.5048,-13.5047,-13.5045,0,0,-13.412,-13.4217,-13.4273,-13.4411,-13.4444,-13.447,-13.4523,-13.4519,-13.4581,-13.4606,-13.4642,-13.4701,-13.4789,-13.4846,-13.4929,-13.5095,-13.5109,-13.5172,-13.5193,-13.521,-13.5227,-13.532,-13.5349,-13.5039,-13.5039,-13.5039,0,0,-13.4083,-13.4155,-13.4136,-13.4299,-13.4361,-13.4422,-13.4505,-13.4481,-13.4558,-13.4546,-13.454,-13.4555,-13.4699,-13.4727,-13.4646,-13.4898,-13.4813,-13.4833,-13.4874,-13.4901,-13.4922,-13.4912,-13.4563,0,0,0,0,0,-13.401,-13.4147,-13.4129,-13.4159,-13.431,-13.4433,-13.4452,-13.4453,-13.4394,-13.446,-13.4486,-13.4447,-13.4683,-13.4611,-13.4638,-13.4729,-13.4962,-13.4976,-13.4989,-13.5082,-13.511,-13.5133,0,0,0,0,0,0,-13.4022,-13.4059,-13.4125,-13.4192,-13.4226,-13.4428,-13.4329,-13.4333,-13.4387,-13.4378,-13.4443,-13.4449,-13.4449,-13.4596,-13.4621,-13.4707,-13.4555,-13.4967,-13.4979,-13.4989,-13.5091,-13.5114,-13.5134,0,0,0,0,0,-13.4031,-13.4061,-13.4304,-13.419,-13.4219,-13.4254,-13.4324,-13.4326,-13.4368,-13.4408,-13.4412,-13.4364,-13.4451,-13.4472,-13.4611,-13.4696,-13.4537,-13.4547,-13.4975,-13.4984,-13.4992,-13.5103,0,0,0,0,0,0,-13.4038,-13.4063,-13.4309,-13.4318,-13.4138,-13.4242,-13.4259,-13.4321,-13.4393,-13.44,-13.4327,-13.4319,-13.4455,-13.447,-13.4487,-13.4692,-13.4523,-13.4533,-13.4538,-13.4982,-13.4989,-13.4995,0,0,0,0,0,0,-13.4047,-13.4071,-13.4314,-13.4249,-13.425,-13.4232,-13.4246,-13.4362,-13.4394,-13.4308,-13.4304,-13.4322,-13.4429,-13.447,-13.4482,-13.4663,-13.4512,-13.4521,-13.4528,-13.4532,-13.4988,-13.4993,0,0,0,0,0,0,-13.4057,-13.4077,-13.4246,-13.4248,-13.4248,-13.4348,-13.4333,-13.4486,-13.4343,-13.4305,-13.433,-13.4324,-13.4429,-13.4442,-13.448,-13.4655,-13.4661,-13.4512,-13.4519,-13.4523,-13.4526,0,0,0,0,0,0,0,-13.4065,-13.3929,-13.4257,-13.4246,-13.4247,-13.44,-13.4403,-13.4405,-13.4342,-13.4336,-13.4331,-13.4326,-13.446,-13.447,-13.448,-13.4649,0,0,-13.4511,-13.4516,0,0,0,0,0,0,0,0,-13.392,-13.3926,-13.4258,-13.4259,-13.4261,-13.4401,-13.4403,-13.4405,-13.4341,-13.4336,-13.4332,-13.4328,-13.4462,-13.4471,-13.4479,0,0,0,0,0,0,0,0,0,0,0,0,0,0,0,-13.4258,-13.4259,0,-13.4401,-13.4403,-13.4404,-13.434,-13.4337,-13.4333,-13.433,-13.4465,-13.4471,-13.4478,0,0,0,0,0,0,0,0,0,0,0,0,0,0,0,0,0,0,0,0,0,0,0,0,0,0,0,0,0,0,0,0,0,0,0,0,0,0,0,0,0,0,0,0,0,0,0,0,0,0,0,0,0,0,0,0,0,0,0,0,0,0,0,0,0,0,0,0,0]}]]]